Location: *
(48.8489°N, 2.3218°E)
Time: 06:16:00
(UTC+00:00)

APEX - Pass Details

Date: 23 August 2019
Orbit: 332 x 1131 km, 69.9° (Epoch: 19 September)

Event Time Altitude Azimuth Distance (km) Brightness Sun altitude
Rises 22:23:00 0° 329° (NNW) 3,424 8.7 -26.6°
Reaches altitude 10° 22:25:44 10° 329° (NNW) 2,348 7.5 -26.8°
Enters shadow 22:30:24 66° 321° (NW) 728 4.0 -27.1°
